Location: Rumah Long Bangan
(2.8362°N, 113.7519°E)
Time: 19:34:35
(UTC+00:00)

ARIANE 5 R/B - Pass Details

Date: 24 October 2021
Orbit: 460 x 35382 km, 7.4° (Epoch: 07 December)

Event Time Altitude Azimuth Distance (km) Brightness Sun altitude
Rises 10:41:17 0° 269° (W) 12,399 10.3 -8.4°
Reaches altitude 10° 10:49:06 10° 267° (W) 13,405 9.9 -10.3°
Drops below altitude 10° 17:39:34 10° 261° (W) 34,076 10.0 -65.8°
Enters shadow 19:36:11 - 263° (W) 16,905 8.3 -37.9°
Exits shadow 20:15:35 36° 265° (W) 4,329 5.2 -28.3°
Maximum altitude 20:23:04 86° 352° (N) 1,593 3.4 -26.5°
Sets 20:29:22 0° 82° (E) 3,000 6.2 -25.0°
